カタログに戻る

EUTE 1-F4

ECS 4

運用中通信GEO
NORAD 18351·PAYLOAD·🇪🇺 EU

打ち上げ Sep 16, 1987 から Guiana Space Centre

Loading…

TLE

最新Source: Space-Track

元期: Sep 14, 2026, 10:43 UTC

1 18351U 87078B   26257.44720279 -.00000262  00000-0  00000-0 0  9996
2 18351  13.7666 341.4935 0008072  41.0869 294.2302  0.98691545127631

AllMySatでEUTE 1-F4をリアルタイム追跡

Download on the App Store